sat.trackr.live / text

‹ back to catalog

STARLINK-37123

NORAD 68275 · 2026-055P

PAYLOAD ACTIVE UNKNOWN

§ Identity

Operator
Country
US
Launch date
2026-03-19
Launch site
AFETR
Launch vehicle
Mass (kg)
RCS (m²)

Purposes: comms

External: N2YO · Heavens-Above · Gunter

§ Orbital elements

Epoch: 2026-05-24T18:47:25.545984Z

Period
93.79 min
Inclination
53.1594°
Eccentricity
0.0000696
Mean motion
15.35406596 rev/d
Perigee alt
459.2 km
Apogee alt
460.2 km
Semi-major
6,837.9 km
B*
6.3715e-4
RAAN
324.9313°
Arg perigee
84.1648°
Mean anomaly
275.9435°
Rev number
1,159

§ Raw data

STARLINK-371231 68275U 26055P   26144.78293456  .00021914  00000+0  63715-3 0  99982 68275  53.1594 324.9313 0000696  84.1648 275.9435 15.35406596 11599

JSON: /api/v1/satellites/68275 · /tle

For live sub-satellite position, see the globe view (requires WebGL).

§ Visibility from observer

Set your observer location to see the next 7 days of passes ≥ 10°. The values pass through the URL so the page stays shareable.

No JS? Fill the form by hand. The geolocation button needs JavaScript.